Regional Weather Roundup
Issued by NWS

Home | Current Version | Previous Version | Text Only | Print | Product List | Glossary On
Versions: 1 2 3 4 5 6 7 8 9 10 11 12 13 14 15 16 17 18 19 20 21 22 23 24 25 26 27 28 29 30 31 32 33 34 35 36 37 38 39 40 41 42 43 44 45 46 47 48 49 50
000
ASUS43 KLSX 192207
RWRMO

WEATHER SUMMARY FOR MISSOURI
NATIONAL WEATHER SERVICE SPRINGFIELD MO
400 PM CST MON FEB 19 2018

NOTE: "FAIR" INDICATES FEW OR NO CLOUDS BELOW 12,000 FEET WITH NO
       SIGNIFICANT WEATHER AND/OR OBSTRUCTIONS TO VISIBILITY.
       CURRENT SKY AND/OR WEATHER CONDITIONS ARE NOT AVAILABLE FOR
       CHILLICOTHE AND FARMINGTON.

MOZ001>031-035>038-043-044-053-054-192300-
...NORTHERN AND WESTERN MISSOURI...

CITY           SKY/WX    TMP DP  RH WIND       PRES   REMARKS
KANSAS CTY INT CLOUDY    32  30  92 NW9       29.78S FOG     WCI  24
KANSAS C DTWN  CLOUDY    35  30  82 NW10      29.79R WCI  27
LEE`S SUMMIT   CLOUDY    36  34  92 NW13      29.77R FOG     WCI  27
ST JOSEPH      CLOUDY    30  30 100 NW10      29.82R WCI  21
CHILLICOTHE      N/A     39  37  92 VRB5      29.78R
KIRKSVILLE     LGT RAIN  56  55  97 W8        29.72R FOG

$$
MOZ066>068-077>081-088>096-101>105-192300-
...SOUTHWEST MISSOURI...

CITY           SKY/WX    TMP DP  RH WIND       PRES   REMARKS
SPRINGFIELD    CLOUDY    67  60  78 S21G31    29.79S
JOPLIN         LGT RAIN  65  64  97 S17G28    29.75S
BRANSON        CLOUDY    68  57  68 S15G25    29.87R

$$
MOZ032>034-039>042-045>050-055>058-069>072-192300-
...CENTRAL MISSOURI...

CITY           SKY/WX    TMP DP  RH WIND       PRES   REMARKS
COLUMBIA       CLOUDY    63  61  93 S15       29.76F FOG
JEFFERSON CITY CLOUDY    66  59  78 S12       29.77F
ROLLA          CLOUDY    64  59  83 S16G25    29.82F
SEDALIA        LGT RAIN  62  62 100 S7        29.74F FOG
WHITEMAN AFB   RAIN      51  50  96 N10       29.69R FOG
WARRENSBURG    TSTM      46  43  87 NW7       29.75R
OSAGE BEACH    CLOUDY    66  60  81 S18G24    29.78S

$$
MOZ051-052-059>065-192300-
...EAST CENTRAL MISSOURI...

CITY           SKY/WX    TMP DP  RH WIND       PRES   REMARKS
ST LOUIS INTL  CLOUDY    62  59  90 SE9       29.86S
SPIRIT OF STL  CLOUDY    63  60  90 NE3       29.84F
ST CHARLES     CLOUDY    62  59  90 S10       29.85S

$$
MOZ072>076-082>087-097>100-106>115-192300-
...SOUTH CENTRAL AND SOUTHEAST MISSOURI...

CITY           SKY/WX    TMP DP  RH WIND       PRES   REMARKS
CAPE GIRARDEAU CLOUDY    69  60  73 SW23G37   29.97R
FARMINGTON     PTSUNNY   69  56  62 S21G30    29.90F
POPLAR BLUFF   CLOUDY    70  60  70 S14G21    29.96R
WEST PLAINS    CLOUDY    67  56  67 S12G23    29.91S

$$



USA.gov is the U.S. government's official web portal to all federal, state and local government web resources and services.